This demonstration page uses our WeatherBlox Daily Observations layout. Learn more.

Left ArrowRight Arrow

39.95238, -75.16362

Hourly Observations for December 1, 2022

Temp ( °F °C ) Dew Point ( °F °C ) Humidity (%) Winds ( mph kmh ) Pressure ( in mb ) Visibility ( mi km ) Precip ( " mm )
12:54 am 00:54 Clear 38 3.3 19 -7.2 46 46 WNW 14 22 30.03 1017 10 16 0.00 0.00
1:54 am 01:54 Clear 38 3.3 19 -7.2 46 46 WNW 12 19 30.05 1018 10 16 0.00 0.00
2:54 am 02:54 Mostly Clear 36 2.2 20 -6.7 52 52 W 7 11 30.09 1019 10 16 0.00 0.00
3:54 am 03:54 Mostly Clear 34 1.1 21 -6.1 59 59 W 8 13 30.11 1020 10 16 0.00 0.00
4:54 am 04:54 Mostly Clear 34 1.1 21 -6.1 59 59 WSW 9 15 30.14 1021 10 16 0.00 0.00
5:54 am 05:54 Mostly Clear 37 2.8 17 -8.3 44 44 WNW 12 19 30.18 1022 10 16 0.00 0.00
6:54 am 06:54 Mostly Clear 37 2.8 16 -8.9 42 42 W 12 19 30.23 1024 10 16 0.00 0.00
7:54 am 07:54 Mostly Sunny 37 2.8 16 -8.9 42 42 W 17 28 30.28 1025 10 16 0.00 0.00
8:54 am 08:54 Mostly Sunny 38 3.3 16 -8.9 40 40 WNW 14 22 30.31 1026 10 16 0.00 0.00
9:54 am 09:54 Mostly Sunny 39 3.9 17 -8.3 40 40 WNW 16 26 30.34 1027 10 16 0.00 0.00
10:54 am 10:54 Partly Cloudy 41 5 18 -7.8 39 39 WNW 20 31 30.35 1028 10 16 0.00 0.00
11:54 am 11:54 Partly Cloudy 42 5.6 18 -7.8 37 37 WNW 20 31 30.34 1028 10 16 0.00 0.00
12:54 pm 12:54 Partly Cloudy 42 5.6 18 -7.8 37 37 WNW 16 26 30.35 1028 10 16 0.00 0.00
1:54 pm 13:54 Mostly Sunny 43 6.1 19 -7.2 38 38 W 20 31 30.37 1028 10 16 0.00 0.00
2:54 pm 14:54 Mostly Sunny 43 6.1 19 -7.2 38 38 WNW 20 31 30.38 1029 10 16 0.00 0.00
3:54 pm 15:54 Mostly Sunny 43 6.1 20 -6.7 39 39 WNW 16 26 30.41 1030 10 16 0.00 0.00
4:54 pm 16:54 Clear 42 5.6 19 -7.2 39 39 WNW 9 15 30.44 1031 10 16 0.00 0.00
5:54 pm 17:54 Clear 41 5 19 -7.2 41 41 WNW 10 17 30.46 1031 10 16 0.00 0.00
6:54 pm 18:54 Clear 39 3.9 20 -6.7 46 46 WNW 8 13 30.47 1032 10 16 0.00 0.00
7:54 pm 19:54 Clear 36 2.2 20 -6.7 52 52 NNW 8 13 30.46 1031 10 16 0.00 0.00
8:54 pm 20:54 Mostly Clear 36 2.2 19 -7.2 50 50 NW 6 9 30.48 1032 10 16 0.00 0.00
9:54 pm 21:54 Clear 36 2.2 19 -7.2 50 50 WNW 3 6 30.49 1033 10 16 0.00 0.00
10:54 pm 22:54 Mostly Clear 33 0.6 20 -6.7 58 58 W 6 9 30.51 1033 10 16 0.00 0.00
11:54 pm 23:54 Clear 32 0 20 -6.7 61 61 W 7 11 30.53 1034 10 16 0.00 0.00

Powered by AerisWeather